SPQ5563 VVTS-WSSS

Flight info

Callsign SPQ5563
Flight time 1h 38m
Altitude 34000
Route NIXIV L643 CN L642 ESPOB/N0456F340 Q801 ESBUM Q802 ELALO
Aircraft A21N/M-SDE3FGHIRWY/LB1

Departure

Time 2026-05-06 14:48
Airport Tan Son Nhat International Airport (VVTS)

Arrival

Time 2026-05-06 16:26
Airport Singapore Changi Airport (WSSS)
Time Latitude Longitude Altitude Speed Heading
2026-05-06 14:01 10.81706 106.66247 30 ft 0 kts 159°
2026-05-06 14:34 10.81718 106.66242 30 ft 2 kts 161°
2026-05-06 14:34 10.81732 106.66237 30 ft 2 kts 159°
2026-05-06 14:34 10.81746 106.66232 30 ft 2 kts 160°
2026-05-06 14:35 10.81759 106.66227 30 ft 1 kts 160°
2026-05-06 14:35 10.81771 106.66222 30 ft 2 kts 144°
2026-05-06 14:35 10.81781 106.66211 29 ft 2 kts 124°
2026-05-06 14:35 10.81788 106.66197 29 ft 2 kts 103°
2026-05-06 14:36 10.81789 106.66183 29 ft 2 kts 83°
2026-05-06 14:36 10.81787 106.66174 29 ft 1 kts 70°
2026-05-06 14:36 10.81785 106.66167 29 ft 0 kts 69°
2026-05-06 14:38 10.81784 106.66167 29 ft 0 kts 69°
2026-05-06 14:41 10.81785 106.66167 29 ft 0 kts 69°
2026-05-06 14:41 10.81786 106.66170 29 ft 0 kts 69°
2026-05-06 14:41 10.81788 106.66176 29 ft 1 kts 69°
2026-05-06 14:42 10.81793 106.66189 29 ft 2 kts 69°
2026-05-06 14:42 10.81802 106.66214 29 ft 5 kts 69°
2026-05-06 14:42 10.81819 106.66259 29 ft 8 kts 70°
2026-05-06 14:42 10.81843 106.66325 28 ft 11 kts 70°
2026-05-06 14:43 10.81870 106.66396 28 ft 13 kts 69°
2026-05-06 14:43 10.81899 106.66473 28 ft 14 kts 69°
2026-05-06 14:43 10.81946 106.66599 30 ft 16 kts 69°
2026-05-06 14:43 10.81988 106.66709 30 ft 17 kts 69°
2026-05-06 14:44 10.82032 106.66823 32 ft 17 kts 69°
2026-05-06 14:44 10.82096 106.66914 33 ft 15 kts 40°
2026-05-06 14:44 10.82169 106.66978 34 ft 13 kts 39°
2026-05-06 14:45 10.82248 106.67014 35 ft 12 kts 354°
2026-05-06 14:45 10.82302 106.66992 35 ft 12 kts 332°
2026-05-06 14:45 10.82370 106.66942 34 ft 11 kts 277°
2026-05-06 14:46 10.82339 106.66869 32 ft 7 kts 251°
2026-05-06 14:46 10.82338 106.66865 32 ft 0 kts 251°
2026-05-06 14:47 10.82338 106.66863 32 ft 0 kts 251°
2026-05-06 14:47 10.82310 106.66783 32 ft 39 kts 250°
2026-05-06 14:47 10.82112 106.66266 30 ft 119 kts 249°
2026-05-06 14:47 10.81759 106.65345 33 ft 178 kts 249°
2026-05-06 14:48 10.81303 106.64087 541 ft 193 kts 250°
2026-05-06 14:48 10.80848 106.62763 1191 ft 207 kts 247°
2026-05-06 14:48 10.80304 106.61369 1722 ft 216 kts 244°
2026-05-06 14:48 10.79712 106.59915 2026 ft 231 kts 245°
2026-05-06 14:49 10.79096 106.58379 2261 ft 250 kts 246°
2026-05-06 14:49 10.78427 106.56664 2624 ft 265 kts 248°
2026-05-06 14:49 10.77541 106.55033 3183 ft 268 kts 226°
2026-05-06 14:49 10.76028 106.54019 3787 ft 265 kts 197°
2026-05-06 14:50 10.74240 106.53820 4269 ft 267 kts 171°
2026-05-06 14:50 10.72357 106.54136 4661 ft 278 kts 167°
2026-05-06 14:50 10.70420 106.54489 4951 ft 281 kts 167°
2026-05-06 14:50 10.68469 106.54830 4987 ft 281 kts 168°
2026-05-06 14:51 10.66548 106.55151 4990 ft 281 kts 168°
2026-05-06 14:51 10.64575 106.55470 4990 ft 281 kts 168°
2026-05-06 14:51 10.62639 106.55778 4990 ft 281 kts 168°
2026-05-06 14:51 10.60709 106.56082 4989 ft 281 kts 168°
2026-05-06 14:52 10.58756 106.56389 4989 ft 281 kts 168°
2026-05-06 14:52 10.56816 106.56693 4989 ft 281 kts 169°
2026-05-06 14:52 10.54883 106.56997 4990 ft 281 kts 169°
2026-05-06 14:52 10.52939 106.57301 4991 ft 281 kts 169°
2026-05-06 14:53 10.51004 106.57603 4990 ft 281 kts 168°
2026-05-06 14:53 10.49066 106.57904 4988 ft 281 kts 168°
2026-05-06 14:53 10.47135 106.58207 4988 ft 281 kts 168°
2026-05-06 14:53 10.45182 106.58514 4987 ft 281 kts 168°
2026-05-06 14:54 10.43240 106.58819 4987 ft 281 kts 168°
2026-05-06 14:54 10.41278 106.59126 4988 ft 282 kts 168°
2026-05-06 14:54 10.39418 106.59416 4988 ft 281 kts 168°
2026-05-06 14:54 10.37477 106.59718 4987 ft 281 kts 168°
2026-05-06 14:55 10.35540 106.60018 4987 ft 281 kts 168°
2026-05-06 14:55 10.33600 106.60319 4988 ft 281 kts 168°
2026-05-06 14:55 10.31647 106.60622 4988 ft 280 kts 168°
2026-05-06 14:55 10.29717 106.60921 4988 ft 280 kts 168°
2026-05-06 14:56 10.27769 106.61222 4992 ft 280 kts 168°
2026-05-06 14:56 10.25820 106.61526 5176 ft 288 kts 168°
2026-05-06 14:56 10.23898 106.61825 5828 ft 288 kts 168°
2026-05-06 14:56 10.21940 106.62135 6455 ft 288 kts 167°
2026-05-06 14:57 10.19949 106.62587 7042 ft 290 kts 162°
2026-05-06 14:57 10.17998 106.63131 7629 ft 292 kts 161°
2026-05-06 14:57 10.16045 106.63689 8202 ft 293 kts 161°
2026-05-06 14:57 10.14027 106.64127 8752 ft 298 kts 169°
2026-05-06 14:58 10.11942 106.64278 9292 ft 301 kts 176°
2026-05-06 14:58 10.09835 106.64273 9831 ft 303 kts 178°
2026-05-06 14:58 10.07727 106.64239 10344 ft 305 kts 178°
2026-05-06 14:58 10.05633 106.64204 10842 ft 306 kts 179°
2026-05-06 14:59 10.03515 106.64171 11311 ft 309 kts 179°
2026-05-06 14:59 10.01320 106.64140 11781 ft 311 kts 178°
2026-05-06 14:59 9.99145 106.64111 12239 ft 314 kts 178°
2026-05-06 14:59 9.96982 106.64085 12672 ft 317 kts 179°
2026-05-06 15:00 9.94738 106.64058 13122 ft 319 kts 179°
2026-05-06 15:00 9.92539 106.64032 13558 ft 321 kts 179°
2026-05-06 15:00 9.90282 106.64005 14009 ft 323 kts 179°
2026-05-06 15:00 9.88027 106.63978 14440 ft 324 kts 179°
2026-05-06 15:01 9.85749 106.63951 14883 ft 325 kts 178°
2026-05-06 15:01 9.83444 106.63924 15163 ft 333 kts 178°
2026-05-06 15:01 9.81113 106.63899 15345 ft 342 kts 178°
2026-05-06 15:01 9.78681 106.63872 15603 ft 349 kts 179°
2026-05-06 15:02 9.76240 106.63844 15981 ft 351 kts 179°
2026-05-06 15:02 9.73773 106.63814 16370 ft 353 kts 179°
2026-05-06 15:02 9.71327 106.63787 16742 ft 355 kts 179°
2026-05-06 15:02 9.68925 106.63758 17106 ft 357 kts 179°
2026-05-06 15:03 9.66514 106.63730 17461 ft 358 kts 179°
2026-05-06 15:03 9.64123 106.63702 17816 ft 359 kts 179°
2026-05-06 15:03 9.61562 106.63673 18187 ft 360 kts 179°
2026-05-06 15:03 9.59042 106.63643 18542 ft 362 kts 179°
2026-05-06 15:04 9.56518 106.63615 18878 ft 363 kts 179°
2026-05-06 15:04 9.53969 106.63585 19208 ft 365 kts 179°
2026-05-06 15:04 9.51445 106.63556 19533 ft 366 kts 179°
2026-05-06 15:04 9.48861 106.63526 19860 ft 367 kts 179°
2026-05-06 15:05 9.46296 106.63496 20169 ft 368 kts 179°
2026-05-06 15:05 9.43736 106.63467 20471 ft 370 kts 179°
2026-05-06 15:05 9.41119 106.63437 20770 ft 371 kts 179°
2026-05-06 15:05 9.38548 106.63407 21060 ft 373 kts 179°
2026-05-06 15:06 9.35926 106.63377 21354 ft 374 kts 179°
2026-05-06 15:06 9.33331 106.63348 21635 ft 375 kts 179°
2026-05-06 15:06 9.30704 106.63319 21908 ft 376 kts 179°
2026-05-06 15:06 9.28060 106.63290 22180 ft 377 kts 179°
2026-05-06 15:07 9.25444 106.63261 22457 ft 379 kts 179°
2026-05-06 15:07 9.22772 106.63230 22725 ft 380 kts 179°
2026-05-06 15:07 9.20112 106.63200 22984 ft 382 kts 179°
2026-05-06 15:07 9.17436 106.63169 23238 ft 383 kts 179°
2026-05-06 15:08 9.15992 106.63152 23372 ft 384 kts 179°
2026-05-06 15:08 9.14372 106.63133 23520 ft 385 kts 179°
2026-05-06 15:08 9.14084 106.63130 23545 ft 386 kts 179°
2026-05-06 15:08 9.11382 106.63100 23779 ft 388 kts 179°
2026-05-06 15:09 9.11231 106.63098 23792 ft 388 kts 179°
2026-05-06 15:09 9.09282 106.63076 23966 ft 389 kts 179°
2026-05-06 15:09 9.06564 106.63045 24211 ft 391 kts 179°
2026-05-06 15:09 9.03834 106.63015 24456 ft 392 kts 179°
2026-05-06 15:10 9.01068 106.62983 24690 ft 394 kts 179°
2026-05-06 15:10 8.98331 106.62952 24925 ft 396 kts 179°
2026-05-06 15:10 8.95571 106.62923 25154 ft 397 kts 179°
2026-05-06 15:10 8.92763 106.62890 25386 ft 399 kts 179°
2026-05-06 15:11 8.90013 106.62859 25612 ft 400 kts 179°
2026-05-06 15:11 8.87195 106.62827 25838 ft 402 kts 179°
2026-05-06 15:11 8.84376 106.62794 26063 ft 403 kts 179°
2026-05-06 15:11 8.81567 106.62761 26302 ft 404 kts 179°
2026-05-06 15:12 8.78740 106.62730 26526 ft 405 kts 179°
2026-05-06 15:12 8.75907 106.62636 26731 ft 407 kts 185°
2026-05-06 15:12 8.73110 106.62064 26925 ft 410 kts 196°
2026-05-06 15:12 8.70456 106.60955 27126 ft 413 kts 207°
2026-05-06 15:13 8.67973 106.59482 27341 ft 414 kts 211°
2026-05-06 15:13 8.65533 106.57954 27542 ft 415 kts 211°
2026-05-06 15:13 8.63056 106.56393 27744 ft 417 kts 211°
2026-05-06 15:13 8.60579 106.54836 27931 ft 419 kts 211°
2026-05-06 15:14 8.58124 106.53301 28107 ft 420 kts 211°
2026-05-06 15:14 8.55599 106.51726 28305 ft 422 kts 211°
2026-05-06 15:14 8.53099 106.50171 28494 ft 423 kts 211°
2026-05-06 15:14 8.50581 106.48607 28689 ft 424 kts 211°
2026-05-06 15:15 8.48052 106.47036 28878 ft 426 kts 211°
2026-05-06 15:15 8.45520 106.45464 29068 ft 428 kts 211°
2026-05-06 15:15 8.43007 106.43905 29254 ft 429 kts 211°
2026-05-06 15:15 8.40451 106.42319 29451 ft 430 kts 211°
2026-05-06 15:16 8.37885 106.40727 29650 ft 431 kts 211°
2026-05-06 15:16 8.35326 106.39140 29851 ft 432 kts 211°
2026-05-06 15:16 8.32753 106.37544 30048 ft 433 kts 211°
2026-05-06 15:16 8.30163 106.35939 30249 ft 434 kts 211°
2026-05-06 15:17 8.27600 106.34350 30450 ft 435 kts 210°
2026-05-06 15:17 8.25001 106.32740 30658 ft 436 kts 211°
2026-05-06 15:17 8.22416 106.31138 30847 ft 437 kts 210°
2026-05-06 15:17 8.19804 106.29520 31035 ft 438 kts 211°
2026-05-06 15:18 8.17224 106.27921 31213 ft 439 kts 211°
2026-05-06 15:18 8.14617 106.26307 31390 ft 440 kts 211°
2026-05-06 15:18 8.12003 106.24688 31561 ft 441 kts 210°
2026-05-06 15:18 8.09367 106.23056 31743 ft 442 kts 210°
2026-05-06 15:19 8.06758 106.21442 31914 ft 443 kts 211°
2026-05-06 15:19 8.04124 106.19812 32095 ft 443 kts 211°
2026-05-06 15:19 8.01482 106.18178 32280 ft 444 kts 211°
2026-05-06 15:19 7.98846 106.16547 32452 ft 445 kts 211°
2026-05-06 15:20 7.96183 106.14898 32643 ft 445 kts 211°
2026-05-06 15:20 7.93553 106.13272 32819 ft 447 kts 211°
2026-05-06 15:20 7.90911 106.11638 32988 ft 448 kts 211°
2026-05-06 15:20 7.88243 106.09988 33159 ft 449 kts 211°
2026-05-06 15:21 7.85576 106.08338 33334 ft 451 kts 211°
2026-05-06 15:21 7.82876 106.06668 33559 ft 451 kts 211°
2026-05-06 15:21 7.80200 106.05012 33824 ft 450 kts 211°
2026-05-06 15:21 7.77555 106.03377 34076 ft 449 kts 211°
2026-05-06 15:22 7.74880 106.01726 34308 ft 450 kts 210°
2026-05-06 15:22 7.72204 106.00075 34529 ft 451 kts 211°
2026-05-06 15:22 7.69521 105.98417 34737 ft 452 kts 211°
2026-05-06 15:22 7.66825 105.96752 34932 ft 453 kts 210°
2026-05-06 15:23 7.64127 105.95085 35123 ft 454 kts 211°
2026-05-06 15:23 7.61434 105.93424 35301 ft 455 kts 210°
2026-05-06 15:23 7.58748 105.91765 35470 ft 456 kts 211°
2026-05-06 15:23 7.56021 105.90082 35627 ft 457 kts 211°
2026-05-06 15:24 7.53301 105.88403 35780 ft 459 kts 210°
2026-05-06 15:24 7.47828 105.85025 35847 ft 465 kts 210°
2026-05-06 15:25 7.42235 105.81576 35847 ft 472 kts 211°
2026-05-06 15:25 7.36624 105.78116 35847 ft 477 kts 210°
2026-05-06 15:26 7.30941 105.74612 35848 ft 482 kts 211°
2026-05-06 15:26 7.25171 105.71054 35847 ft 484 kts 210°
2026-05-06 15:27 7.19429 105.67515 35847 ft 485 kts 211°
2026-05-06 15:27 7.13668 105.63963 35847 ft 486 kts 210°
2026-05-06 15:28 7.07877 105.60394 35848 ft 486 kts 210°
2026-05-06 15:28 7.02136 105.56858 35847 ft 485 kts 210°
2026-05-06 15:29 6.96222 105.53605 35848 ft 485 kts 206°
2026-05-06 15:29 6.90388 105.50645 35849 ft 485 kts 205°
2026-05-06 15:30 6.84372 105.47593 35848 ft 486 kts 205°
2026-05-06 15:30 6.78433 105.44577 35849 ft 485 kts 206°
2026-05-06 15:31 6.72443 105.41533 35849 ft 485 kts 206°
2026-05-06 15:31 6.66336 105.38427 35849 ft 485 kts 206°
2026-05-06 15:32 6.57278 105.33823 35847 ft 485 kts 205°
2026-05-06 15:32 6.51244 105.30756 35849 ft 485 kts 205°
2026-05-06 15:33 6.46270 105.28230 35849 ft 485 kts 205°
2026-05-06 15:33 6.40226 105.25159 35849 ft 485 kts 205°
2026-05-06 15:34 6.34161 105.22079 35849 ft 485 kts 205°
2026-05-06 15:34 6.28136 105.19020 35850 ft 485 kts 205°
2026-05-06 15:35 6.22108 105.15962 35850 ft 485 kts 205°
2026-05-06 15:35 6.16069 105.12897 35846 ft 485 kts 205°
2026-05-06 15:36 6.10028 105.09833 35840 ft 486 kts 205°
2026-05-06 15:36 6.03996 105.06773 35832 ft 485 kts 205°
2026-05-06 15:37 5.97919 105.03691 35830 ft 485 kts 205°
2026-05-06 15:37 5.91891 105.00636 35829 ft 485 kts 205°
2026-05-06 15:38 5.85877 104.97589 35829 ft 484 kts 205°
2026-05-06 15:38 5.79853 104.94536 35835 ft 485 kts 205°
2026-05-06 15:39 5.73803 104.91472 35843 ft 485 kts 205°
2026-05-06 15:39 5.67754 104.88409 35847 ft 485 kts 205°
2026-05-06 15:40 5.61713 104.85349 35848 ft 485 kts 205°
2026-05-06 15:40 5.55645 104.82278 35848 ft 485 kts 205°
2026-05-06 15:41 5.49609 104.79224 35848 ft 485 kts 205°
2026-05-06 15:41 5.43554 104.76160 35848 ft 485 kts 205°
2026-05-06 15:42 5.37482 104.73087 35848 ft 485 kts 205°
2026-05-06 15:42 5.31474 104.70049 35848 ft 485 kts 205°
2026-05-06 15:43 5.25437 104.66995 35848 ft 485 kts 205°
2026-05-06 15:43 5.19384 104.63934 35848 ft 485 kts 205°
2026-05-06 15:44 5.13334 104.60875 35848 ft 485 kts 205°
2026-05-06 15:44 5.07281 104.57812 35848 ft 485 kts 205°
2026-05-06 15:45 5.01237 104.54754 35848 ft 484 kts 205°
2026-05-06 15:45 4.95165 104.51757 35845 ft 483 kts 201°
2026-05-06 15:46 4.88829 104.49649 35846 ft 481 kts 191°
2026-05-06 15:46 4.82179 104.48696 35847 ft 479 kts 181°
2026-05-06 15:47 4.75546 104.48930 35848 ft 477 kts 172°
2026-05-06 15:47 4.68928 104.49760 35846 ft 476 kts 171°
2026-05-06 15:48 4.62509 104.50593 35847 ft 477 kts 171°
2026-05-06 15:48 4.55896 104.51437 35846 ft 477 kts 171°
2026-05-06 15:49 4.49280 104.52272 35847 ft 477 kts 171°
2026-05-06 15:49 4.42702 104.53102 35848 ft 477 kts 171°
2026-05-06 15:50 4.36055 104.53939 35846 ft 477 kts 171°
2026-05-06 15:50 4.29472 104.54733 35842 ft 478 kts 173°
2026-05-06 15:51 4.22811 104.55019 35833 ft 479 kts 179°
2026-05-06 15:51 4.16083 104.54597 35829 ft 481 kts 185°
2026-05-06 15:52 4.09472 104.53492 35828 ft 483 kts 189°
2026-05-06 15:52 4.02849 104.52132 35819 ft 483 kts 190°
2026-05-06 15:53 3.96220 104.50767 35822 ft 484 kts 190°
2026-05-06 15:53 3.89604 104.49412 35826 ft 484 kts 190°
2026-05-06 15:54 3.83006 104.48064 35827 ft 484 kts 190°
2026-05-06 15:54 3.76367 104.46709 35831 ft 484 kts 190°
2026-05-06 15:55 3.69732 104.45355 35841 ft 484 kts 189°
2026-05-06 15:55 3.63128 104.44008 35845 ft 483 kts 190°
2026-05-06 15:56 3.56538 104.42663 35847 ft 480 kts 190°
2026-05-06 15:56 3.49955 104.41321 35848 ft 480 kts 190°
2026-05-06 15:57 3.43368 104.39978 35848 ft 480 kts 190°
2026-05-06 15:57 3.36804 104.38640 35848 ft 480 kts 190°
2026-05-06 15:58 3.30247 104.37303 35847 ft 480 kts 190°
2026-05-06 15:58 3.23713 104.35972 35847 ft 480 kts 190°
2026-05-06 15:59 3.17102 104.34624 35846 ft 480 kts 190°
2026-05-06 15:59 3.10515 104.33282 35847 ft 481 kts 189°
2026-05-06 16:00 3.03946 104.31945 35847 ft 481 kts 190°
2026-05-06 16:00 2.97325 104.30595 35848 ft 481 kts 189°
2026-05-06 16:01 2.90780 104.29263 35849 ft 481 kts 190°
2026-05-06 16:01 2.87511 104.28597 35738 ft 482 kts 190°
2026-05-06 16:01 2.84185 104.27920 35132 ft 477 kts 190°
2026-05-06 16:02 2.80941 104.27258 34593 ft 470 kts 190°
2026-05-06 16:02 2.77779 104.26614 34085 ft 463 kts 190°
2026-05-06 16:02 2.74639 104.25974 33594 ft 457 kts 190°
2026-05-06 16:02 2.71536 104.25341 33114 ft 450 kts 190°
2026-05-06 16:03 2.68483 104.24720 32644 ft 444 kts 190°
2026-05-06 16:03 2.65435 104.24100 32205 ft 438 kts 190°
2026-05-06 16:03 2.62484 104.23497 31799 ft 432 kts 190°
2026-05-06 16:03 2.59538 104.22896 31395 ft 426 kts 190°
2026-05-06 16:04 2.56661 104.22309 30999 ft 420 kts 190°
2026-05-06 16:04 2.53813 104.21729 30608 ft 414 kts 189°
2026-05-06 16:04 2.50998 104.21155 30222 ft 409 kts 189°
2026-05-06 16:04 2.48209 104.20587 29839 ft 403 kts 189°
2026-05-06 16:05 2.45495 104.20035 29468 ft 397 kts 189°
2026-05-06 16:05 2.42780 104.19482 29095 ft 392 kts 189°
2026-05-06 16:05 2.40103 104.18936 28729 ft 386 kts 189°
2026-05-06 16:05 2.37487 104.18404 28374 ft 381 kts 189°
2026-05-06 16:06 2.34914 104.17879 28036 ft 376 kts 189°
2026-05-06 16:06 2.32336 104.17355 27698 ft 371 kts 189°
2026-05-06 16:06 2.29833 104.16845 27369 ft 366 kts 189°
2026-05-06 16:06 2.27339 104.16338 27040 ft 360 kts 189°
2026-05-06 16:07 2.24905 104.15842 26718 ft 355 kts 189°
2026-05-06 16:07 2.22473 104.15347 26362 ft 351 kts 189°
2026-05-06 16:07 2.20118 104.14868 25978 ft 349 kts 188°
2026-05-06 16:07 2.17722 104.14381 25588 ft 346 kts 188°
2026-05-06 16:08 2.15365 104.13902 25204 ft 343 kts 188°
2026-05-06 16:08 2.13035 104.13428 24827 ft 341 kts 188°
2026-05-06 16:08 2.10693 104.12952 24450 ft 338 kts 188°
2026-05-06 16:08 2.08385 104.12480 24087 ft 335 kts 188°
2026-05-06 16:09 2.06108 104.12016 23720 ft 332 kts 188°
2026-05-06 16:09 2.03857 104.11559 23364 ft 329 kts 188°
2026-05-06 16:09 2.01602 104.11100 23004 ft 326 kts 188°
2026-05-06 16:09 1.99388 104.10641 22782 ft 323 kts 189°
2026-05-06 16:10 1.97192 104.10059 22483 ft 326 kts 193°
2026-05-06 16:10 1.95039 104.09412 22170 ft 323 kts 193°
2026-05-06 16:10 1.92886 104.08755 21830 ft 320 kts 194°
2026-05-06 16:10 1.90762 104.08105 21479 ft 318 kts 194°
2026-05-06 16:11 1.88632 104.07455 21119 ft 316 kts 194°
2026-05-06 16:11 1.86526 104.06812 20702 ft 317 kts 194°
2026-05-06 16:11 1.84367 104.06158 20223 ft 340 kts 194°
2026-05-06 16:11 1.81991 104.05440 19748 ft 370 kts 194°
2026-05-06 16:12 1.79417 104.04661 19270 ft 398 kts 195°
2026-05-06 16:12 1.76780 104.03860 18782 ft 422 kts 195°
2026-05-06 16:12 1.73952 104.02999 18279 ft 431 kts 195°
2026-05-06 16:12 1.71172 104.02149 17779 ft 434 kts 195°
2026-05-06 16:13 1.68307 104.01276 17253 ft 436 kts 195°
2026-05-06 16:13 1.65427 104.00397 16764 ft 437 kts 195°
2026-05-06 16:13 1.62555 103.99520 16241 ft 438 kts 195°
2026-05-06 16:13 1.59645 103.98633 15748 ft 438 kts 196°
2026-05-06 16:14 1.56825 103.97773 15259 ft 439 kts 196°
2026-05-06 16:14 1.53901 103.96881 14745 ft 440 kts 195°
2026-05-06 16:14 1.51078 103.96021 14254 ft 439 kts 196°
2026-05-06 16:14 1.48216 103.95149 13793 ft 433 kts 196°
2026-05-06 16:15 1.45358 103.94278 13352 ft 423 kts 196°
2026-05-06 16:15 1.42556 103.93419 12939 ft 414 kts 197°
2026-05-06 16:15 1.39864 103.92427 12704 ft 399 kts 200°
2026-05-06 16:15 1.37360 103.91435 12751 ft 379 kts 200°
2026-05-06 16:16 1.34940 103.90465 12598 ft 366 kts 200°
2026-05-06 16:16 1.32610 103.89535 12228 ft 360 kts 200°
2026-05-06 16:16 1.30286 103.88613 11815 ft 356 kts 200°
2026-05-06 16:16 1.27972 103.87700 11227 ft 358 kts 200°
2026-05-06 16:17 1.25615 103.86771 10627 ft 359 kts 200°
2026-05-06 16:17 1.23352 103.85866 10178 ft 355 kts 203°
2026-05-06 16:17 1.21418 103.84544 9987 ft 344 kts 227°
2026-05-06 16:17 1.20012 103.82690 9931 ft 329 kts 235°
2026-05-06 16:18 1.18679 103.80809 9365 ft 332 kts 229°
2026-05-06 16:18 1.16871 103.79487 8757 ft 322 kts 200°
2026-05-06 16:18 1.14732 103.79204 8162 ft 310 kts 171°
2026-05-06 16:18 1.12707 103.79878 7581 ft 300 kts 155°
2026-05-06 16:19 1.10770 103.80608 6979 ft 293 kts 160°
2026-05-06 16:19 1.08988 103.81533 6351 ft 286 kts 136°
2026-05-06 16:19 1.07970 103.83175 5746 ft 279 kts 103°
2026-05-06 16:19 1.07980 103.85038 5159 ft 273 kts 75°
2026-05-06 16:20 1.08516 103.86839 4566 ft 268 kts 74°
2026-05-06 16:20 1.09322 103.88467 4106 ft 258 kts 47°
2026-05-06 16:20 1.10744 103.89429 3993 ft 244 kts 22°
2026-05-06 16:20 1.12301 103.89989 3973 ft 226 kts 19°
2026-05-06 16:21 1.13699 103.90475 4017 ft 197 kts 20°
2026-05-06 16:21 1.14958 103.90950 4065 ft 185 kts 21°
2026-05-06 16:21 1.16075 103.91396 3950 ft 159 kts 23°
2026-05-06 16:21 1.17064 103.91804 3947 ft 151 kts 24°
2026-05-06 16:22 1.18038 103.92213 3972 ft 149 kts 24°
2026-05-06 16:22 1.18998 103.92619 3980 ft 149 kts 24°
2026-05-06 16:22 1.19956 103.93027 3962 ft 146 kts 24°
2026-05-06 16:22 1.20880 103.93419 3674 ft 143 kts 25°
2026-05-06 16:23 1.21807 103.93813 3197 ft 146 kts 25°
2026-05-06 16:23 1.22741 103.94209 2851 ft 144 kts 25°
2026-05-06 16:23 1.23672 103.94605 2803 ft 146 kts 25°
2026-05-06 16:23 1.24614 103.95003 2768 ft 147 kts 24°
2026-05-06 16:24 1.25567 103.95392 2580 ft 147 kts 23°
2026-05-06 16:24 1.26532 103.95790 2023 ft 158 kts 25°
2026-05-06 16:24 1.27574 103.96272 1345 ft 168 kts 25°
2026-05-06 16:24 1.28585 103.96719 1042 ft 157 kts 24°
2026-05-06 16:25 1.29567 103.97133 668 ft 151 kts 23°
2026-05-06 16:25 1.30509 103.97529 552 ft 142 kts 22°
2026-05-06 16:25 1.31425 103.97908 353 ft 142 kts 22°
2026-05-06 16:25 1.32338 103.98292 208 ft 140 kts 21°
2026-05-06 16:26 1.33244 103.98664 31 ft 138 kts 23°
2026-05-06 16:26 1.34126 103.99042 28 ft 134 kts 21°
2026-05-06 16:26 1.34708 103.99272 33 ft 47 kts 22°
2026-05-06 16:26 1.34794 103.99307 34 ft 2 kts 22°
2026-05-06 16:27 1.34847 103.99329 35 ft 14 kts 22°
2026-05-06 16:27 1.34968 103.99378 36 ft 24 kts 24°
2026-05-06 16:27 1.35129 103.99436 35 ft 23 kts
2026-05-06 16:27 1.35267 103.99432 37 ft 17 kts 355°
2026-05-06 16:28 1.35293 103.99429 37 ft 16 kts 345°
2026-05-06 16:29 1.35335 103.99371 39 ft 14 kts 259°
2026-05-06 16:29 1.35261 103.99314 40 ft 14 kts 205°
2026-05-06 16:29 1.35168 103.99274 40 ft 14 kts 202°
2026-05-06 16:29 1.35077 103.99237 41 ft 14 kts 202°
2026-05-06 16:30 1.34983 103.99197 40 ft 15 kts 205°
2026-05-06 16:30 1.34919 103.99167 39 ft 15 kts 205°
2026-05-06 16:30 1.34783 103.99108 39 ft 16 kts 200°
2026-05-06 16:30 1.34679 103.99068 37 ft 17 kts 204°
2026-05-06 16:31 1.34567 103.99016 36 ft 17 kts 204°
2026-05-06 16:31 1.34562 103.99013 36 ft 17 kts 202°
2026-05-06 16:31 1.34498 103.98988 34 ft 18 kts 202°
2026-05-06 16:31 1.34434 103.98895 33 ft 18 kts 278°
2026-05-06 16:32 1.34453 103.98835 33 ft 17 kts 290°